Pasco, WA
on Wednesday, January 30, 2013

Wednesday
Previous Day Next Day
Daily Summary
 ActualAverageRecord
Temperature
Mean Temperature °F 37°F  
Max Temperature 55°F 45°F 62°F (1995)
Min Temperature 42°F 29°F -13°F (1996)
Degree Days
Heating Degree Days 16 28  
Month to date heating degree days 987 906  
Since 1 July heating degree days 2894 3122  
Cooling Degree Days 0 0  
Month to date cooling degree days 0 0  
Year to date cooling degree days 0 0  
Moisture
Dew Point 38°F   
Average Humidity 71    
Maximum Humidity 82    
Minimum Humidity 59    
Precipitation
Precipitation 0.00 in in 0.30 in (1969)
Month to date precipitation 0.36  
Year to date precipitation 0.36  
Snow
Snow 0.00 in in in ()
Snow Depth 0.00 in   
Wind
Wind Speed 10 mph   
Max Wind Speed 22 mph   
Max Gust Speed 25 mph   
Visibility 10 miles   
Events     

Key: T is trace of precipitation, MM is missing value
Source: NWS Daily Summary
Time(PST)TemperatureDew PointHumidity Pressure Visibility Wind DirectionWind SpeedGust SpeedPrecipitationEvents Conditions
12:53 AM 46.0°F 36.0°F 68% 30.21 in 10.0 miles WSW 9.2 mph - N/A   Overcast
1:53 AM 46.0°F 36.0°F 68% 30.22 in 10.0 miles SW 11.5 mph - N/A   Overcast
2:53 AM 44.1°F 36.0°F 73% 30.23 in 10.0 miles South 6.9 mph - N/A   Clear
3:53 AM 44.1°F 36.0°F 73% 30.22 in 10.0 miles SW 10.4 mph - N/A   Clear
4:53 AM 44.1°F 36.0°F 73% 30.21 in 10.0 miles SW 10.4 mph - N/A   Clear
5:53 AM 44.1°F 36.0°F 73% 30.22 in 10.0 miles WSW 10.4 mph - N/A   Clear
6:53 AM 44.1°F 36.0°F 73% 30.21 in 10.0 miles WSW 17.3 mph - N/A   Clear
7:53 AM 45.0°F 36.0°F 71% 30.21 in 10.0 miles WSW 11.5 mph - N/A   Clear
8:53 AM 46.9°F 37.0°F 68% 30.22 in 10.0 miles SW 15.0 mph - N/A   Clear
9:53 AM 48.0°F 37.0°F 66% 30.24 in 10.0 miles SW 10.4 mph - N/A   Clear
10:53 AM 50.0°F 37.9°F 63% 30.25 in 10.0 miles SW 15.0 mph - N/A   Clear
12:03 PM 53.6°F 39.2°F 58% 30.23 in 10.0 miles SW 10.4 mph - N/A   Partly Cloudy
12:53 PM 53.1°F 39.0°F 59% 30.24 in 10.0 miles SW 9.2 mph - N/A   Clear
1:53 PM 53.1°F 39.9°F 61% 30.23 in 10.0 miles SSW 9.2 mph - N/A   Clear
2:53 PM 54.0°F 39.9°F 59% 30.24 in 10.0 miles SSW 8.1 mph - N/A   Clear
3:53 PM 52.0°F 39.9°F 63% 30.25 in 10.0 miles WSW 10.4 mph - N/A   Clear
4:53 PM 48.9°F 39.9°F 71% 30.25 in 10.0 miles SSW 11.5 mph - N/A   Clear
5:53 PM 48.9°F 39.0°F 69% 30.26 in 10.0 miles SW 10.4 mph - N/A   Clear
6:53 PM 46.9°F 39.0°F 74% 30.27 in 10.0 miles South 3.5 mph - N/A   Clear
7:53 PM 43.0°F 37.0°F 80% 30.27 in 10.0 miles Calm Calm - N/A   Clear
8:53 PM 43.0°F 37.0°F 80% 30.28 in 10.0 miles SSW 11.5 mph - N/A   Clear
9:53 PM 45.0°F 37.9°F 76% 30.29 in 10.0 miles South 5.8 mph - N/A   Clear
10:53 PM 45.0°F 37.9°F 76% 30.29 in 10.0 miles South 6.9 mph - N/A   Partly Cloudy
11:53 PM 45.0°F 39.0°F 80% 30.28 in 10.0 miles SSE 4.6 mph - N/A   Overcast
Moon Phase
Jan. 30 Feb. 03 Feb. 10 Feb. 17 Feb. 25
Sunrise:07:21 AM (PST) Moon Rise:09:20 PM (PST)
Sunset:04:58 PM (PST) Moon Set:08:36 AM (PST)

Copyright © 2014 The Weather Underground, Inc.